This is the latest recevied weather packets stored in our database for station/object SR5NLK-1. If no packets are shown the sender has not sent any weather packets the latest 10 day(s).
| Time | Temp. | Humidity | Pressure | Rain* | Wind** | Luminosity | Snow |
|---|---|---|---|---|---|---|---|
| 1787908197 | 24.44° C | 44% | 1090.9 hPa | 0 mm | - | - | - |
| 1787907897 | 23.89° C | 44% | 1084.7 hPa | 0 mm | - | - | - |
| 1787907597 | 23.89° C | 45% | 1069 hPa | 0 mm | - | - | - |
| 1787907297 | 23.89° C | 45% | 1074.9 hPa | 0 mm | - | - | - |
| 1787906997 | 23.33° C | 45% | 1045.1 hPa | 0 mm | - | - | - |
| 1787906936 | 23.33° C | 45% | 1068.9 hPa | 0 mm | - | - | - |
| 1787906697 | 23.33° C | 46% | 1081.4 hPa | 0 mm | - | - | - |
| 1787906397 | 23.33° C | 45% | 1039.7 hPa | 0 mm | - | - | - |
| 1787906097 | 23.33° C | 45% | 972.5 hPa | 0 mm | - | - | - |
| 1787905797 | 23.33° C | 44% | 1065.3 hPa | 0 mm | - | - | - |
| 1787905197 | 23.89° C | 43% | 1060.4 hPa | 0 mm | - | - | - |
| 1787904956 | 23.89° C | 43% | 1067.3 hPa | 0 mm | - | - | - |
| 1787904897 | 23.89° C | 42% | 1070.6 hPa | 0 mm | - | - | - |
| 1787904597 | 25° C | 41% | 1036.5 hPa | 0 mm | - | - | - |
| 1787904297 | 25.56° C | 40% | 1056.4 hPa | 0 mm | - | - | - |
| 1787903997 | 26.67° C | 40% | 1044.1 hPa | 0 mm | - | - | - |
| 1787903697 | 26.11° C | 41% | 1026.8 hPa | 0 mm | - | - | - |
| 1787903397 | 26.11° C | 41% | 1088.4 hPa | 0 mm | - | - | - |
| 1787903097 | 26.11° C | 41% | 1078.4 hPa | 0 mm | - | - | - |
| 1787902976 | 26.67° C | 40% | 1065.8 hPa | 0 mm | - | - | - |
| 1787902497 | 25.56° C | 44% | 1078.2 hPa | 0 mm | - | - | - |
| 1787902197 | 24.44° C | 45% | 1059.5 hPa | 0 mm | - | - | - |
| 1787901897 | 23.89° C | 46% | 1066.5 hPa | 0 mm | - | - | - |
| 1787901597 | 22.78° C | 47% | 1033.4 hPa | 0 mm | - | - | - |
| 1787901297 | 22.78° C | 47% | 1075.4 hPa | 0 mm | - | - | - |
* Rain latest hour (hover to see other rain measurements)
** Current wind speed in m/s (hover to see current wind gust speed)